TimeCDT,TemperatureF,Dew PointF,Humidity,Sea Level PressureIn,VisibilityMPH,Wind Direction,Wind SpeedMPH,Gust SpeedMPH,PrecipitationIn,Events,Conditions,WindDirDegrees,DateUTC
12:53 AM,59.0,52.0,78,30.00,10.0,Calm,Calm,-,N/A,,Clear,0,2013-05-18 05:53:00
1:53 AM,55.9,52.0,87,30.02,10.0,NNE,5.8,-,N/A,,Clear,20,2013-05-18 06:53:00
2:31 AM,55.4,51.8,88,30.02,10.0,NE,4.6,-,N/A,,Mostly Cloudy,40,2013-05-18 07:31:00
2:53 AM,55.9,52.0,87,30.01,10.0,NE,4.6,-,N/A,,Overcast,50,2013-05-18 07:53:00
3:23 AM,55.4,51.8,88,30.01,10.0,NE,5.8,-,N/A,,Scattered Clouds,40,2013-05-18 08:23:00
3:53 AM,55.0,51.1,86,30.01,10.0,Calm,Calm,-,N/A,,Scattered Clouds,0,2013-05-18 08:53:00
4:53 AM,55.9,51.1,84,30.00,10.0,East,5.8,-,N/A,,Clear,100,2013-05-18 09:53:00
5:53 AM,55.9,52.0,87,29.99,9.0,ESE,6.9,-,N/A,,Clear,120,2013-05-18 10:53:00
6:53 AM,57.0,53.1,87,30.01,8.0,ESE,6.9,-,N/A,,Clear,110,2013-05-18 11:53:00
7:53 AM,61.0,55.9,83,30.01,7.0,SE,11.5,-,N/A,,Clear,140,2013-05-18 12:53:00
8:53 AM,66.9,61.0,81,30.01,6.0,SSE,9.2,-,N/A,,Haze,160,2013-05-18 13:53:00
9:53 AM,70.0,63.0,78,30.01,6.0,South,10.4,-,N/A,,Haze,180,2013-05-18 14:53:00
10:09 AM,71.6,64.4,78,30.03,6.0,South,9.2,-,N/A,,Haze,170,2013-05-18 15:09:00
10:19 AM,71.6,64.4,78,30.03,7.0,SSE,9.2,-,N/A,,Scattered Clouds,160,2013-05-18 15:19:00
10:53 AM,73.0,63.0,71,30.01,8.0,SSE,10.4,-,N/A,,Mostly Cloudy,150,2013-05-18 15:53:00
11:01 AM,73.4,62.6,69,30.02,8.0,SSE,9.2,-,N/A,,Scattered Clouds,150,2013-05-18 16:01:00
11:26 AM,73.4,62.6,69,30.01,9.0,South,11.5,-,N/A,,Mostly Cloudy,170,2013-05-18 16:26:00
11:48 AM,75.2,62.6,65,30.01,9.0,SSE,9.2,18.4,N/A,,Mostly Cloudy,150,2013-05-18 16:48:00
11:53 AM,75.0,63.0,66,30.00,9.0,South,12.7,-,N/A,,Mostly Cloudy,170,2013-05-18 16:53:00
12:53 PM,75.0,63.0,66,29.99,9.0,SSE,9.2,-,N/A,,Mostly Cloudy,160,2013-05-18 17:53:00
1:53 PM,75.2,62.6,65,29.97,8.0,SE,9.2,16.1,N/A,,Mostly Cloudy,130,2013-05-18 18:53:00
2:53 PM,78.1,61.0,56,29.95,10.0,SE,11.5,-,N/A,,Mostly Cloudy,140,2013-05-18 19:53:00
3:53 PM,80.1,61.0,52,29.93,10.0,SE,12.7,19.6,N/A,,Mostly Cloudy,140,2013-05-18 20:53:00
4:53 PM,80.1,60.1,50,29.92,10.0,SSE,10.4,18.4,N/A,,Scattered Clouds,150,2013-05-18 21:53:00
5:53 PM,80.1,59.0,48,29.91,10.0,SSE,12.7,-,N/A,,Scattered Clouds,160,2013-05-18 22:53:00
6:53 PM,78.1,60.1,54,29.90,10.0,South,10.4,-,N/A,,Scattered Clouds,170,2013-05-18 23:53:00
7:53 PM,75.0,61.0,62,29.91,10.0,South,8.1,-,N/A,,Clear,170,2013-05-19 00:53:00
8:53 PM,72.0,60.1,66,29.91,10.0,SSE,6.9,-,N/A,,Clear,150,2013-05-19 01:53:00
9:53 PM,70.0,60.1,71,29.91,10.0,SE,8.1,-,N/A,,Clear,140,2013-05-19 02:53:00
10:53 PM,69.1,59.0,70,29.89,10.0,SE,9.2,-,N/A,,Clear,140,2013-05-19 03:53:00
11:53 PM,68.0,59.0,73,29.88,10.0,SSE,9.2,-,N/A,,Clear,150,2013-05-19 04:53:00